Total_Precipitation_Accumulation
0.51 0.41 0.49 0.56 0.50 0.53 0.73 0.75 0.65 0.36 0.28 0.28 0.27 0.28 0.24 0.22 0.19 0.18 0.21 0.26 0.29 0.34 0.38 0.47 0.62 0.80 0.96 0.98 0.88 0.89 0.95 1.08 1.25 1.31 1.25 1.23 1.35 1.49 1.55 1.58 1.59 1.59 1.61 1.53
0.50 0.34 0.38 0.42 0.35 0.38 0.44 0.42 0.40 0.28 0.30 0.27 0.25 0.25 0.24 0.24 0.22 0.21 0.23 0.27 0.31 0.34 0.35 0.43 0.60 0.80 0.94 1.00 1.01 0.99 1.08 1.15 1.27 1.39 1.37 1.32 1.34 1.50 1.63 1.68 1.72 1.69 1.61 1.55
0.75 0.42 0.63 0.66 0.39 0.36 0.37 0.35 0.35 0.36 0.31 0.26 0.26 0.28 0.30 0.28 0.27 0.28 0.27 0.29 0.33 0.36 0.38 0.44 0.62 0.81 0.90 0.97 1.03 1.10 1.17 1.19 1.21 1.30 1.36 1.32 1.27 1.39 1.56 1.64 1.64 1.65 1.60 1.51
1.06 0.80 1.16 0.60 0.29 0.28 0.30 0.33 0.37 0.38 0.33 0.28 0.28 0.30 0.32 0.32 0.32 0.31 0.31 0.34 0.37 0.39 0.40 0.43 0.55 0.66 0.72 0.83 0.93 1.01 1.08 1.14 1.16 1.19 1.27 1.33 1.29 1.25 1.30 1.38 1.48 1.47 1.41 1.35
1.40 1.04 0.63 0.29 0.24 0.31 0.37 0.43 0.43 0.39 0.33 0.29 0.25 0.25 0.30 0.31 0.30 0.31 0.32 0.36 0.36 0.38 0.43 0.46 0.51 0.56 0.61 0.70 0.82 0.89 0.94 0.98 1.02 1.04 1.11 1.16 1.22 1.17 1.13 1.15 1.21 1.25 1.24 1.20
1.51 1.12 0.59 0.36 0.25 0.26 0.33 0.50 0.41 0.35 0.35 0.33 0.33 0.49 0.46 0.37 0.29 0.27 0.26 0.29 0.30 0.31 0.36 0.44 0.51 0.51 0.57 0.64 0.70 0.80 0.82 0.80 0.79 0.83 0.92 0.93 0.93 0.96 0.94 0.98 1.03 1.05 1.11 1.13
1.27 1.00 0.45 0.25 0.18 0.22 0.52 0.67 0.43 0.38 0.37 0.38 0.48 0.58 0.47 0.36 0.30 0.26 0.24 0.23 0.24 0.25 0.30 0.39 0.49 0.50 0.54 0.60 0.62 0.70 0.74 0.68 0.65 0.68 0.74 0.76 0.79 0.82 0.82 0.83 0.88 0.94 0.99 1.05
0.95 1.10 0.58 0.25 0.25 0.47 0.65 0.43 0.39 0.38 0.36 0.38 0.37 0.32 0.30 0.28 0.26 0.24 0.23 0.21 0.21 0.23 0.28 0.35 0.43 0.47 0.50 0.57 0.60 0.63 0.68 0.66 0.62 0.62 0.67 0.69 0.72 0.76 0.79 0.83 0.89 0.90 0.94 1.03
0.72 0.66 0.43 0.35 0.41 0.43 0.38 0.35 0.34 0.36 0.35 0.36 0.34 0.29 0.27 0.25 0.23 0.22 0.21 0.21 0.22 0.24 0.28 0.31 0.33 0.39 0.45 0.50 0.53 0.57 0.62 0.63 0.64 0.65 0.66 0.69 0.74 0.78 0.82 0.83 0.89 0.94 0.93 0.96
0.46 0.38 0.35 0.35 0.33 0.31 0.28 0.29 0.28 0.29 0.33 0.33 0.31 0.26 0.23 0.21 0.20 0.19 0.19 0.21 0.24 0.24 0.25 0.28 0.29 0.33 0.38 0.41 0.45 0.52 0.58 0.61 0.63 0.66 0.68 0.71 0.74 0.77 0.83 0.88 0.95 0.99 0.95 0.92
0.33 0.25 0.25 0.28 0.28 0.26 0.22 0.19 0.18 0.18 0.19 0.23 0.23 0.22 0.21 0.21 0.21 0.22 0.22 0.22 0.22 0.23 0.25 0.27 0.28 0.30 0.33 0.35 0.39 0.46 0.51 0.56 0.62 0.65 0.66 0.69 0.69 0.72 0.77 0.80 0.97 1.18 1.07 1.01
0.29 0.21 0.21 0.22 0.20 0.19 0.18 0.16 0.17 0.18 0.16 0.16 0.18 0.20 0.20 0.22 0.23 0.24 0.25 0.24 0.23 0.22 0.22 0.23 0.25 0.27 0.30 0.30 0.33 0.39 0.45 0.49 0.56 0.62 0.64 0.64 0.66 0.73 0.76 0.77 0.81 0.83 0.86 0.95
0.19 0.15 0.14 0.14 0.12 0.12 0.13 0.15 0.16 0.16 0.15 0.15 0.16 0.18 0.19 0.20 0.21 0.21 0.21 0.22 0.22 0.21 0.20 0.21 0.22 0.25 0.30 0.31 0.31 0.35 0.43 0.49 0.52 0.55 0.60 0.64 0.65 0.70 0.74 0.74 0.72 0.69 0.71 0.77
0.13 0.13 0.15 0.12 0.12 0.11 0.12 0.13 0.13 0.13 0.13 0.13 0.14 0.16 0.17 0.18 0.18 0.18 0.20 0.21 0.19 0.18 0.18 0.19 0.20 0.23 0.28 0.30 0.31 0.34 0.41 0.49 0.53 0.54 0.59 0.63 0.64 0.67 0.71 0.75 0.75 0.70 0.68 0.75
0.12 0.13 0.13 0.12 0.11 0.11 0.11 0.11 0.12 0.12 0.11 0.10 0.11 0.13 0.15 0.16 0.18 0.19 0.19 0.18 0.16 0.15 0.17 0.18 0.19 0.22 0.25 0.27 0.29 0.33 0.39 0.48 0.55 0.58 0.60 0.62 0.62 0.64 0.68 0.68 0.68 0.67 0.70 0.80
0.13 0.12 0.12 0.11 0.11 0.11 0.11 0.12 0.13 0.12 0.10 0.10 0.11 0.13 0.16 0.17 0.18 0.18 0.16 0.16 0.15 0.15 0.17 0.19 0.20 0.23 0.24 0.26 0.29 0.33 0.38 0.50 0.60 0.63 0.63 0.65 0.66 0.67 0.69 0.68 0.66 0.66 0.71 0.79
0.16 0.13 0.11 0.11 0.10 0.11 0.11 0.13 0.13 0.13 0.11 0.11 0.13 0.15 0.16 0.17 0.17 0.17 0.17 0.17 0.16 0.16 0.17 0.19 0.22 0.24 0.24 0.27 0.31 0.34 0.39 0.47 0.57 0.62 0.64 0.66 0.71 0.72 0.72 0.74 0.74 0.72 0.70 0.73
0.17 0.17 0.16 0.15 0.14 0.14 0.13 0.13 0.13 0.14 0.13 0.13 0.15 0.17 0.18 0.19 0.19 0.18 0.18 0.18 0.17 0.17 0.18 0.19 0.23 0.25 0.25 0.28 0.33 0.35 0.40 0.47 0.54 0.63 0.65 0.67 0.74 0.76 0.76 0.76 0.75 0.75 0.70 0.72
0.14 0.15 0.15 0.16 0.17 0.18 0.16 0.13 0.13 0.14 0.14 0.15 0.17 0.19 0.20 0.22 0.22 0.21 0.20 0.19 0.18 0.18 0.20 0.21 0.26 0.25 0.25 0.29 0.38 0.41 0.48 0.53 0.58 0.60 0.61 0.70 0.75 0.73 0.75 0.76 0.78 0.77 0.73 0.73
0.15 0.15 0.16 0.17 0.18 0.19 0.18 0.16 0.15 0.15 0.16 0.17 0.19 0.21 0.22 0.23 0.23 0.24 0.22 0.21 0.21 0.22 0.21 0.24 0.25 0.25 0.28 0.34 0.46 0.52 0.54 0.57 0.62 0.63 0.64 0.69 0.75 0.76 0.77 0.79 0.80 0.80 0.77 0.76
0.18 0.18 0.19 0.19 0.18 0.17 0.18 0.18 0.18 0.18 0.18 0.18 0.21 0.24 0.24 0.25 0.25 0.24 0.23 0.23 0.25 0.25 0.24 0.25 0.25 0.32 0.40 0.50 0.55 0.54 0.55 0.61 0.67 0.71 0.72 0.73 0.77 0.78 0.79 0.81 0.83 0.85 0.86 0.84
0.20 0.20 0.21 0.21 0.19 0.18 0.18 0.18 0.18 0.19 0.19 0.20 0.22 0.24 0.25 0.26 0.26 0.25 0.25 0.25 0.26 0.30 0.30 0.27 0.31 0.43 0.52 0.58 0.54 0.54 0.57 0.63 0.70 0.74 0.77 0.77 0.82 0.85 0.84 0.85 0.90 0.90 0.91 0.90
0.23 0.24 0.23 0.23 0.21 0.20 0.18 0.17 0.18 0.19 0.21 0.22 0.24 0.26 0.27 0.28 0.28 0.29 0.30 0.28 0.28 0.34 0.34 0.34 0.42 0.51 0.57 0.55 0.51 0.53 0.59 0.65 0.72 0.79 0.83 0.84 0.86 0.90 0.92 0.92 0.94 0.95 0.95 0.93
0.25 0.24 0.24 0.24 0.23 0.21 0.21 0.20 0.20 0.21 0.21 0.22 0.24 0.26 0.28 0.29 0.28 0.28 0.31 0.33 0.35 0.38 0.39 0.44 0.50 0.54 0.56 0.54 0.54 0.58 0.66 0.74 0.82 0.89 0.92 0.93 0.92 0.93 0.97 1.00 1.01 0.98 0.95 0.94
0.29 0.28 0.25 0.25 0.25 0.25 0.25 0.24 0.23 0.22 0.22 0.22 0.23 0.25 0.28 0.31 0.34 0.34 0.34 0.38 0.42 0.44 0.45 0.48 0.51 0.54 0.54 0.56 0.62 0.70 0.77 0.86 0.98 1.05 1.05 1.02 0.98 0.98 1.00 1.03 1.05 1.02 1.00 0.97
0.32 0.32 0.31 0.30 0.30 0.30 0.29 0.28 0.27 0.26 0.26 0.27 0.28 0.29 0.31 0.35 0.38 0.38 0.40 0.43 0.45 0.47 0.47 0.51 0.54 0.58 0.62 0.67 0.73 0.78 0.82 0.86 0.93 1.00 1.01 1.01 1.00 1.01 1.03 1.06 1.05 1.04 1.01 0.98
0.34 0.33 0.31 0.30 0.31 0.33 0.33 0.33 0.35 0.35 0.35 0.37 0.38 0.38 0.39 0.41 0.43 0.43 0.44 0.47 0.50 0.52 0.53 0.56 0.60 0.64 0.69 0.76 0.80 0.83 0.85 0.87 0.92 1.01 1.05 1.04 1.03 1.05 1.06 1.07 1.07 1.04 1.02 0.98